Regional Weather Roundup
Issued by NWS Kansas City/Pleasant Hill, MO

Home | Current Version | Previous Version | Graphics & Text | Print | Product List | Glossary Off
Versions: 1 2 3 4 5 6 7 8 9 10 11 12 13 14 15 16 17 18 19 20 21 22 23 24 25 26 27 28 29 30 31 32 33 34 35 36 37 38 39 40 41 42 43 44 45 46 47 48 49 50

000
ASUS43 KEAX 190004
RWREAX

WEATHER ROUNDUP FOR EASTERN KANSAS AND NORTHWEST MISSOURI
NATIONAL WEATHER SERVICE KANSAS CITY/PLEASANT HILL MO
700 PM CDT FRI APR 18 2014

KSZ040-057-103>105-MOZ028-029-037-043-190100-
...KANSAS CITY METROPOLITAN AREA...

CITY           SKY/WX    TMP DP  RH WIND       PRES   REMARKS
K.C. INTL      MOSUNNY   66  39  37 SE12      30.15F
6HR MIN TEMP:  61; 6HR MAX TEMP:  68;

K.C. DOWNTOWN  SUNNY     68  40  35 SE7       30.15F
6HR MIN TEMP:  63; 6HR MAX TEMP:  70;

LEES SUMMIT    SUNNY     66  41  40 SE8       30.17F
6HR MIN TEMP:  61; 6HR MAX TEMP:  68;

OLATHE - IXD   SUNNY     65  41  41 SE13      30.16F
6HR MIN TEMP:  62; 6HR MAX TEMP:  68;

OLATHE - OJC   SUNNY     65  41  41 S9        30.15F
6HR MIN TEMP:  61; 6HR MAX TEMP:  66;

LAWRENCE       MOSUNNY   68  39  34 SE14      30.14F

$$

MOZ001>008-011>017-020>025-030>033-038>040-044>046-053-054-190100-
...NORTHERN AND CENTRAL MISSOURI...

CITY           SKY/WX    TMP DP  RH WIND       PRES   REMARKS
ST. JOSEPH     SUNNY     67  38  34 S14       30.14F
6HR MIN TEMP:  60; 6HR MAX TEMP:  69;

MOSBY          FAIR      68  39  34 SE6       30.17F
WHITEMAN AFB   CLEAR     67  42  40 E5        30.17F
6HR MIN TEMP:  61; 6HR MAX TEMP:  68;

CLINTON        CLEAR     70  43  37 E6        30.17S
SEDALIA        CLEAR     67  44  43 E6        30.18F
6HR MIN TEMP:  62; 6HR MAX TEMP:  70;

WARSAW         NOT AVBL
MARSHALL         N/A     70  46  43 E5        30.19F
CHILLICOTHE      N/A     67  41  38 SE6       30.18F
6HR MIN TEMP:  60; 6HR MAX TEMP:  68;

MOBERLY        CLEAR     68  39  34 SE7       30.21F
KIRKSVILLE     CLEAR     64  37  36 SE8       30.21F
6HR MIN TEMP:  59; 6HR MAX TEMP:  67;


$$

MOZ041-047>049-056>058-063>065-088>090-097-190100-
...EASTERN AND SOUTHERN MISSOURI...

CITY           SKY/WX    TMP DP  RH WIND       PRES   REMARKS
ST. LOUIS INTL CLEAR     68  39  34 NE7       30.21F
6HR MIN TEMP:  65; 6HR MAX TEMP:  72;

SPIRIT OF STL  CLEAR     66  39  37 NE5       30.20F
COLUMBIA       CLEAR     67  42  40 E3        30.19S
JEFFERSON CITY CLEAR     69  36  29 SE3       30.19S
MEXICO         CLEAR     64  43  45 E5        30.21F
HANNIBAL       CLEAR     68  19  15 CALM      30.21F
ROLLA          CLEAR     66  41  40 NE5       30.17F
LEBANON        CLEAR     70  36  28 NE6       30.18S
OSAGE BEACH    CLEAR     68  37  32 NE7       30.19S
SPRINGFIELD    MOCLDY    70  39  32 E8        30.15F
BRANSON        CLEAR     68  37  32 SE7       30.16F
NEVADA         CLEAR     70  41  35 E6        30.16F
JOPLIN         SUNNY     69  41  36 VRB6      30.14F
WEST PLAINS    PTCLDY    70  40  33 E5        30.17S

$$

IAZ060-094-KSZ022-034>040-054-083-096-NEZ052-066-093-190100-
...KANSAS...SOUTHEAST NEBRASKA AND IOWA...

CITY           SKY/WX    TMP DP  RH WIND       PRES   REMARKS
TOPEKA         MOSUNNY   68  41  37 SE13      30.13F
6HR MIN TEMP:  63; 6HR MAX TEMP:  70;

MANHATTAN      SUNNY     69  41  36 S13       30.09
EMPORIA        MOSUNNY   67  40  37 S13       30.11F
CHANUTE        SUNNY     68  41  37 S8        30.14F
WICHITA        MOSUNNY   70  41  34 S17       30.09F
OMAHA          PTSUNNY   68  38  33 S23G30    30.08F
LINCOLN        MOSUNNY   67  38  34 S17G26    30.06F
LAMONI         CLEAR     63  37  38 SE7       30.17F
DES MOINES     PTCLDY    64  33  31 SE13      30.18F

$$




USA.gov is the U.S. government's official web portal to all federal, state and local government web resources and services.